Location: Rotheul
(50.2849°N, 11.2349°E)
Time: 16:48:52
(UTC+02:00)

ISS - Pass Details

Date: 12 July 2018
Orbit: 402 x 408 km, 51.6° (Epoch: 20 July)

Event Time Altitude Azimuth Distance (km) Brightness Sun altitude
Exits shadow 02:48:20 36° 207° (SSW) 660 -3.3 -15.2°
Maximum altitude 02:49:18 51° 155° (SSE) 517 -3.6 -15.1°
Drops below altitude 10° 02:52:31 10° 78° (ENE) 1,473 -0.5 -14.9°
Sets 02:54:38 0° 73° (ENE) 2,337 0.6 -14.8°
